Retour au catalogue

COSMOS 374 DEB

ActifLEO
NORAD 4617·DEBRIS·🇷🇺 Russia

Lancé Oct 23, 1970 depuis Baikonur Cosmodrome

Loading…

Prochains Passages (prochaines 24 heures)

TLE

FraisSource: Space-Track

Époque: Sep 14, 2026, 22:19 UTC

1 04617U 70089D   26257.93027149  .00002472  00000-0  40694-3 0  9990
2 04617  62.9356  91.1771 0330168 345.2903  13.8732 14.42805300780921

Suivez COSMOS 374 DEB en temps réel avec AllMySat

Download on the App Store